Location: College Park
(38.9810°N, 76.9370°W)
Time: 19:08:49
(UTC-05:00)

Tiangong 2 - Visible Passes

Search period start: 18 February 2019 00:00
Search period end: 28 February 2019 00:00
Orbit: 381 x 390 km, 42.8° (Epoch: 18 February)

Date Brightness Start Highest point End Pass type
(mag) Time Alt. Az. Time Alt. Az. Time Alt. Az.
18 Feb 3.0 19:47:46 10° W 19:49:46 29° WSW 19:49:46 29° WSW visible
19 Feb 1.3 18:48:25 10° WNW 18:51:33 65° SSW 18:53:39 19° SE visible
20 Feb 3.3 19:26:25 10° W 19:28:51 21° SW 19:29:55 17° S visible
21 Feb 2.5 18:26:47 10° W 18:29:44 36° SSW 18:32:41 10° SE visible
22 Feb 4.1 19:05:51 10° WSW 19:06:52 11° SW 19:07:54 10° SSW visible
